Elizabethton, TN

5:29 PM EDT on July 24, 2016 (GMT -0400)
Elizabethton

Weather History for K0A9 - May, 2013

Change the Weather History Date:

Friday, May 24, 2013

  Actual Average (KTRI) Record (KTRI)
Temperature  
Mean Temperature 52 °F 66 °F  
Max Temperature 62 °F 78 °F 88 °F (1970)
Min Temperature 42 °F 53 °F 40 °F (1961)
Degree Days  
Heating Degree Days 13 2  
Month to date heating degree days 97  
Since 1 July heating degree days 4351  
Cooling Degree Days 0 3  
Month to date cooling degree days 40  
Year to date cooling degree days 51  
Growing Degree Days 2 (Base 50)    
Moisture  
Dew Point 45 °F    
Average Humidity 70    
Maximum Humidity 100    
Minimum Humidity 39    
Precipitation  
Precipitation 0.00 in 0.13 in 1.28 in (1938)
Month to date precipitation 2.92  
Year to date precipitation 16.51  
Snow  
Snow 0.00 in 0.00 in - ()
Month to date snowfall 0.0  
Since 1 July snowfall 13.3  
Snow Depth -    
Sea Level Pressure  
Sea Level Pressure 30.15 in    
Wind  
Wind Speed 5 mph (WNW)    
Max Wind Speed 16 mph    
Max Gust Speed 26 mph    
Visibility 10 miles    
Events Rain    
T = Trace of Precipitation, MM = Missing Value Source: NWS Daily Summary

Daily Weather History Graph

Daily Weather History Graph

Search for Another Location

Airport or City:

Trip Planner

Search our weather history database for the weather conditions in past years. The results will help you decide how hot, cold, wet, or windy it might be!

Date:

Astronomy

May. 24, 2013 Rise Set
Actual Time 6:15 AM EDT 8:35 PM EDT
Civil Twilight 5:46 AM EDT 9:05 PM EDT
Nautical Twilight 5:10 AM EDT 9:41 PM EDT
Astronomical Twilight 4:30 AM EDT 10:21 PM EDT
Moon 8:17 PM EDT 5:45 AM EDT
Length of Visible Light 15h 18m
Length of Day
14h 19m
Full, 100% of the Moon is Illuminated
May 24
Full
May 25
Full
May 31
Last Quarter
Jun 8
New
Jun 16
First Quarter

Hourly Weather History & Observations

Time (EDT) Temp. Dew Point Humidity Pressure Visibility Wind Dir Wind Speed Gust Speed Precip Events Conditions
12:15 AM 57.2 °F 55.4 °F 94% 30.01 in 10.0 mi Calm Calm - N/A   Overcast
12:35 AM 57.2 °F 55.4 °F 94% 30.01 in 10.0 mi Calm Calm - N/A   Overcast
12:55 AM 57.2 °F 55.4 °F 94% 30.01 in 10.0 mi Calm Calm - N/A   Overcast
1:15 AM 57.2 °F 55.4 °F 94% 30.01 in 10.0 mi Calm Calm - N/A   Overcast
1:35 AM 57.2 °F 55.4 °F 94% 30.00 in 10.0 mi Calm Calm - N/A   Overcast
1:55 AM 55.4 °F 55.4 °F 100% 30.00 in 10.0 mi Calm Calm - N/A   Overcast
2:15 AM 57.2 °F 55.4 °F 94% 30.00 in 10.0 mi WNW 3.5 mph - N/A   Overcast
2:35 AM 57.2 °F 55.4 °F 94% 29.99 in 10.0 mi Calm Calm - N/A   Overcast
2:55 AM 57.2 °F 55.4 °F 94% 29.99 in 10.0 mi West 4.6 mph - N/A   Overcast
3:15 AM 57.2 °F 53.6 °F 88% 30.00 in 10.0 mi West 5.8 mph - N/A   Overcast
3:35 AM 57.2 °F 53.6 °F 88% 29.99 in 10.0 mi West 5.8 mph - N/A   Mostly Cloudy
3:55 AM 57.2 °F 53.6 °F 88% 30.00 in 10.0 mi WSW 5.8 mph - N/A   Overcast
4:15 AM 57.2 °F 53.6 °F 88% 30.00 in 8.0 mi WSW 5.8 mph - N/A   Light Drizzle
4:35 AM 55.4 °F 53.6 °F 94% 30.01 in 5.0 mi WSW 6.9 mph - N/A Rain Light Rain
4:55 AM 55.4 °F 53.6 °F 94% 30.01 in 5.0 mi WSW 5.8 mph - N/A   Overcast
5:15 AM 55.4 °F 53.6 °F 94% 30.01 in 9.0 mi WSW 6.9 mph - N/A   Overcast
5:35 AM 55.4 °F 53.6 °F 94% 30.01 in 10.0 mi SW 8.1 mph - N/A   Overcast
5:55 AM 55.4 °F 53.6 °F 94% 30.01 in 5.0 mi Calm Calm - N/A   Drizzle
6:15 AM 55.4 °F 53.6 °F 94% 30.02 in 6.0 mi WSW 5.8 mph - N/A   Light Drizzle
6:35 AM 55.4 °F 53.6 °F 94% 30.03 in 4.0 mi WNW 11.5 mph - N/A Rain Light Rain
6:55 AM 55.4 °F 51.8 °F 88% 30.04 in 10.0 mi NNW 8.1 mph - N/A   Light Drizzle
7:15 AM 53.6 °F 48.2 °F 82% 30.07 in 10.0 mi NNW 8.1 mph - N/A Rain Light Rain
7:35 AM 53.6 °F 48.2 °F 82% 30.07 in 10.0 mi NNE 8.1 mph - N/A   Mostly Cloudy
7:55 AM 51.8 °F 46.4 °F 82% 30.09 in 10.0 mi North 6.9 mph - N/A   Mostly Cloudy
8:15 AM 51.8 °F 46.4 °F 82% 30.11 in 9.0 mi North 8.1 mph - N/A   Light Drizzle
8:35 AM 51.8 °F 44.6 °F 76% 30.12 in 10.0 mi Variable 6.9 mph - N/A   Overcast
8:55 AM 51.8 °F 44.6 °F 76% 30.14 in 10.0 mi Variable 5.8 mph - N/A   Overcast
9:15 AM 51.8 °F 44.6 °F 76% 30.16 in 10.0 mi NW 8.1 mph - N/A   Overcast
9:35 AM 51.8 °F 44.6 °F 76% 30.16 in 10.0 mi West 13.8 mph - N/A   Overcast
9:55 AM 51.8 °F 42.8 °F 71% 30.17 in 10.0 mi WNW 15.0 mph - N/A   Overcast
10:15 AM 51.8 °F 42.8 °F 71% 30.18 in 10.0 mi Variable 3.5 mph - N/A   Overcast
10:35 AM 51.8 °F 42.8 °F 71% 30.19 in 10.0 mi WNW 10.4 mph - N/A   Overcast
10:55 AM 55.4 °F 44.6 °F 67% 30.19 in 10.0 mi NNW 8.1 mph 17.3 mph N/A   Mostly Cloudy
11:15 AM 53.6 °F 42.8 °F 67% 30.20 in 10.0 mi NW 12.7 mph 20.7 mph N/A   Mostly Cloudy
11:35 AM 55.4 °F 44.6 °F 67% 30.20 in 10.0 mi NW 15.0 mph - N/A   Scattered Clouds
11:55 AM 53.6 °F 42.8 °F 67% 30.21 in 10.0 mi NW 12.7 mph - N/A   Scattered Clouds
12:15 PM 55.4 °F 42.8 °F 63% 30.21 in 10.0 mi NW 15.0 mph - N/A   Partly Cloudy
12:35 PM 55.4 °F 42.8 °F 63% 30.21 in 10.0 mi NW 10.4 mph 26.5 mph N/A   Clear
12:55 PM 55.4 °F 39.2 °F 54% 30.22 in 10.0 mi WNW 16.1 mph - N/A   Clear
1:15 PM 55.4 °F 41.0 °F 58% 30.22 in 10.0 mi NW 8.1 mph - N/A   Clear
1:35 PM 57.2 °F 41.0 °F 55% 30.21 in 10.0 mi WNW 10.4 mph - N/A   Clear
1:55 PM 57.2 °F 39.2 °F 51% 30.23 in 10.0 mi NW 10.4 mph - N/A   Clear
2:15 PM 57.2 °F 39.2 °F 51% 30.22 in 10.0 mi North 8.1 mph - N/A   Clear
2:35 PM 59.0 °F 39.2 °F 48% 30.22 in 10.0 mi NNW 10.4 mph - N/A   Clear
2:55 PM 59.0 °F 39.2 °F 48% 30.22 in 10.0 mi NNW 11.5 mph - N/A   Clear
3:15 PM 60.8 °F 39.2 °F 45% 30.21 in 10.0 mi NW 11.5 mph - N/A   Clear
3:35 PM 60.8 °F 41.0 °F 48% 30.21 in 10.0 mi WNW 9.2 mph - N/A   Clear
3:55 PM 62.6 °F 42.8 °F 48% 30.21 in 10.0 mi NW 9.2 mph - N/A   Clear
4:15 PM 62.6 °F 39.2 °F 42% 30.21 in 10.0 mi West 10.4 mph - N/A   Partly Cloudy
4:35 PM 62.6 °F 39.2 °F 42% 30.21 in 10.0 mi West 13.8 mph - N/A   Clear
4:55 PM 62.6 °F 39.2 °F 42% 30.21 in 10.0 mi West 12.7 mph - N/A   Clear
5:15 PM 62.6 °F 37.4 °F 39% 30.21 in 10.0 mi WNW 8.1 mph - N/A   Clear
5:35 PM 62.6 °F 37.4 °F 39% 30.21 in 10.0 mi NW 9.2 mph - N/A   Clear
5:55 PM 62.6 °F 37.4 °F 39% 30.22 in 10.0 mi Variable 5.8 mph - N/A   Clear
6:15 PM 60.8 °F 35.6 °F 39% 30.22 in 10.0 mi NW 6.9 mph - N/A   Clear
6:35 PM 60.8 °F 35.6 °F 39% 30.22 in 10.0 mi NW 12.7 mph - N/A   Clear
6:55 PM 60.8 °F 35.6 °F 39% 30.22 in 10.0 mi WNW 9.2 mph - N/A   Clear
7:15 PM 60.8 °F 35.6 °F 39% 30.22 in 10.0 mi Variable 6.9 mph - N/A   Clear
7:35 PM 59.0 °F 35.6 °F 42% 30.23 in 10.0 mi NW 8.1 mph - N/A   Clear
7:55 PM 57.2 °F 35.6 °F 44% 30.23 in 10.0 mi Variable 5.8 mph - N/A   Clear
8:15 PM 57.2 °F 35.6 °F 44% 30.24 in 10.0 mi NW 6.9 mph - N/A   Clear
8:35 PM 55.4 °F 33.8 °F 44% 30.24 in 10.0 mi NNW 9.2 mph - N/A   Clear
8:55 PM 55.4 °F 35.6 °F 47% 30.24 in 10.0 mi Calm Calm - N/A   Clear
9:15 PM 51.8 °F 37.4 °F 58% 30.25 in 10.0 mi NNW 6.9 mph - N/A   Clear
9:35 PM 48.2 °F 41.0 °F 76% 30.25 in 10.0 mi NW 3.5 mph - N/A   Clear
9:55 PM 48.2 °F 41.0 °F 76% 30.26 in 10.0 mi Calm Calm - N/A   Clear
10:15 PM 46.4 °F 41.0 °F 81% 30.26 in 10.0 mi Calm Calm - N/A   Clear
10:35 PM 44.6 °F 41.0 °F 87% 30.27 in 10.0 mi Calm Calm - N/A   Clear
10:55 PM 44.6 °F 41.0 °F 87% 30.27 in 10.0 mi Calm Calm - N/A   Clear
11:15 PM 44.6 °F 41.0 °F 87% 30.27 in 10.0 mi Calm Calm - N/A   Clear
11:35 PM 42.8 °F 41.0 °F 93% 30.27 in 10.0 mi Calm Calm - N/A   Clear
11:55 PM 42.8 °F 41.0 °F 93% 30.28 in 10.0 mi Calm Calm - N/A   Clear